Regional Weather Roundup
Issued by NWS New Orleans/Baton Rouge, LA

Home | Current Version | Previous Version | Text Only | Print | Product List | Glossary On
Versions: 1 2 3 4 5 6 7 8 9 10 11 12 13 14 15 16 17 18 19 20 21 22 23 24 25 26 27
000
ASUS44 KLIX 211813
RWRLIX
NEW ORLEANS REGIONAL WEATHER ROUNDUP
NATIONAL WEATHER SERVICE NEW ORLEANS LA
1200 PM CST SUN JAN 21 2018

NOTE: "FAIR" INDICATES FEW OR NO CLOUDS BELOW 12,000 FEET WITH NO
      SIGNIFICANT WEATHER AND/OR OBSTRUCTIONS TO VISIBILITY.
      SKY/WX - SKY CONDITION AND SIGNIFICANT WEATHER.
      TMP - AIR TEMPERATURE.     DP    - DEWPOINT TEMPERATURE.
      RH  - RELATIVE HUMIDITY.   PRES  - PRESSURE.
      HI  - HEAT INDEX.          WCI   - WIND CHILL INDEX.

*  THESE STATIONS ARE NOT NWS OR FAA STATIONS AND ARE NOT UNDER
   NWS QUALITY CONTROL.

LAZ038-040-048-061>063-065>067-069-211900-
SOUTHEAST LOUISIANA

CITY           SKY/WX    TMP DP  RH WIND       PRES   REMARKS
N.O. INTL ARPT PTSUNNY   72  61  68 SE14      30.14F
6HR MIN TEMP:  51; 6HR MAX TEMP:  73;

N.O. LAKEFRONT CLOUDY    72  58  61 SE14      30.15F
6HR MIN TEMP:  52; 6HR MAX TEMP:  73;

N.O. DOWNTOWN* CLOUDY    71  58  63 SE8       30.15F
6HR MIN TEMP:  59; 6HR MAX TEMP:  71;

RESERVE*       CLOUDY    72  61  67 SE12      30.13F
6HR MIN TEMP:  46; 6HR MAX TEMP:  73;

SLIDELL        FAIR      72  54  53 S15       30.16F
6HR MIN TEMP:  43; 6HR MAX TEMP:  72;

BATON ROUGE    PTSUNNY   70  61  73 SE15      30.11F
6HR MIN TEMP:  50; 6HR MAX TEMP:  71;

BOOTHVILLE     FAIR      73  59  61 E12       30.16F
6HR MIN TEMP:  52; 6HR MAX TEMP:  74;

BELLE CHASSE   PTSUNNY   73  61  65 SE15      30.14F
6HR MIN TEMP:  52; 6HR MAX TEMP:  73;

BOGALUSA*      FAIR      73  56  54 S12       30.15F
6HR MIN TEMP:  40; 6HR MAX TEMP:  74;

GALLIANO*      FAIR      71  58  63 E9        30.14F
6HR MIN TEMP:  53; 6HR MAX TEMP:  71;

NEW ROADS*     MOCLDY    70  63  77 SE12      30.11F
6HR MIN TEMP:  47; 6HR MAX TEMP:  70;

GONZALES*      CLOUDY    70  62  74 SE8       30.11F
6HR MIN TEMP:  46; 6HR MAX TEMP:  71;

HAMMOND*       CLOUDY    68  57  68 S13       30.14F
HOUMA*         MOSUNNY   72  63  73 SE16G25   30.12F
PORT FOURCHON* CLEAR     68  61  77 SE12      30.13F

$$

MSZ070-080>082-211900-
SOUTHERN MISSISSIPPI

CITY           SKY/WX    TMP DP  RH WIND       PRES   REMARKS
MCCOMB         CLOUDY    71  57  61 S13       30.13F
6HR MIN TEMP:  49; 6HR MAX TEMP:  71;

GULFPORT       FAIR      69  56  62 SE17      30.17F
6HR MIN TEMP:  46; 6HR MAX TEMP:  70;

BILOXI         FAIR      69  55  60 SE12G20   30.17F
6HR MIN TEMP:  47; 6HR MAX TEMP:  69;

PASCAGOULA     FAIR      69  54  58 SE14      30.19F
6HR MIN TEMP:  38; 6HR MAX TEMP:  70;

STENNIS ARPT*  SUNNY     70  55  60 SE14G20   30.17F

$$

COASTAL OBSERVATIONS
LAKE AND NEARSHORE STATIONS

STATION/POSITION TIME  SKY/WX   TEMP    WIND        PRES    WAVE
                                AIR SEA DIR/SP/G            HT/PER
                 (UTC)          (F)     (DEG/KT/KT) (MB)    (FT/S)
PASCAGOULA       1748            66     120/ 12/ 18 1022.0
WAVELAND YACHT   1748            62 49  120/ 12/ 13 1021.5
GRAND ISLE       1748            65 56  120/  5/ 10 1020.7
SOUTHWEST PASS   1748            70 48  130/ 12/ 17 1021.1
NEW CANAL        1748            70 46  120/  2/  7 1020.7
SHELL BEACH      1748            67 49  110/ 14/ 16 1021.1

OFFSHORE STATIONS

STATION/POSITION TIME  SKY/WX   TEMP    WIND        PRES    WAVE
                                AIR SEA DIR/SP/G            HT/PER
                 (UTC)          (F)     (DEG/KT/KT) (MB)    (FT/S)
64 S DAUPHIN ISL 1750            66 66  100/ 10/ 12 1021.9    3/ 7

$$





USA.gov is the U.S. government's official web portal to all federal, state and local government web resources and services.